Theta_e
325 328 328 329 332 337 339 340 338 338 339 338 337 335 334 332 331 328 327 328 328 331 329 327 326 323 322 325 326 325 323 321 317 315 315 318 318 319 319 318 317 316 313
326 330 334 337 336 338 340 340 339 338 338 337 336 334 331 331 329 319 322 326 325 323 325 325 326 324 323 324 323 325 322 322 316 316 316 315 314 313 314 314 313 311 308
328 330 328 329 333 338 339 339 338 338 338 337 332 321 316 312 312 310 310 314 315 318 319 322 321 322 321 321 322 323 322 320 320 317 316 312 312 311 311 311 306 302 304
329 331 331 332 333 336 338 338 337 336 326 311 311 311 311 310 310 310 310 310 310 314 320 318 318 319 319 320 319 321 321 320 319 318 315 315 314 310 307 305 304 302 302
329 332 332 331 332 333 332 331 324 312 311 311 311 311 310 310 309 309 311 311 309 311 313 315 317 318 318 316 318 317 319 316 317 316 316 315 315 314 310 305 304 302 302
326 324 322 323 322 318 314 312 312 311 311 311 310 310 309 308 309 312 313 310 311 312 312 310 311 313 314 316 316 316 315 313 316 316 315 315 314 311 310 309 306 303 301
322 319 315 313 313 313 313 312 311 311 310 310 309 308 307 308 311 312 314 313 313 314 313 310 310 310 313 312 313 312 312 312 312 314 314 314 314 314 313 308 302 300 299
322 320 316 315 314 314 313 311 310 309 309 309 308 307 307 307 307 307 313 315 314 313 313 312 310 309 309 311 311 311 311 311 310 310 311 312 313 311 310 310 305 298 298
320 319 316 315 315 313 311 310 309 309 308 308 307 307 307 307 308 311 313 314 315 313 311 312 311 309 309 310 310 309 309 309 308 308 308 309 311 311 311 311 309 308 298
319 319 317 317 312 310 309 309 309 308 308 307 307 307 308 309 309 309 310 312 315 314 310 311 312 309 308 307 308 308 308 307 306 306 305 306 307 309 309 308 310 308 304
320 319 316 310 309 309 309 308 308 307 307 308 308 308 309 310 308 307 308 308 313 313 311 311 311 307 306 307 307 306 306 306 305 303 303 304 305 305 307 309 307 304 303
316 313 310 309 309 309 308 308 307 308 308 309 310 310 310 309 308 308 307 306 308 310 311 310 311 307 306 306 305 305 304 303 302 300 300 301 303 302 303 302 305 304 302
312 310 309 308 308 308 308 308 309 309 310 311 310 309 308 308 308 309 307 306 307 307 308 309 310 309 307 306 305 306 303 300 300 299 298 299 300 302 302 301 301 301 300
311 309 308 308 308 309 309 309 309 309 309 309 309 308 308 309 309 307 307 307 308 308 307 307 309 308 308 308 306 306 304 301 300 298 298 298 299 300 300 301 301 300 299
311 310 308 309 309 309 308 308 307 305 303 303 304 307 308 307 307 307 308 308 307 308 307 307 308 307 306 306 306 306 304 302 300 299 298 298 299 299 299 300 300 300 300
310 309 309 309 308 308 306 303 302 301 302 302 301 301 301 300 304 307 307 307 307 307 307 307 307 307 306 306 306 306 305 303 300 299 297 297 297 297 298 299 299 300 300
309 309 308 308 306 304 303 302 302 302 302 301 301 300 301 300 300 305 307 306 305 306 307 307 307 307 307 307 306 306 305 302 302 298 298 297 297 297 298 299 299 300 300
309 308 307 304 303 302 303 303 303 303 302 301 301 301 301 301 301 306 306 306 304 305 307 308 308 307 306 306 306 305 304 301 301 296 296 298 297 297 298 298 298 299 298
307 304 303 302 302 302 301 302 303 303 302 301 301 301 301 301 303 305 305 304 304 305 306 306 307 307 306 305 305 305 303 301 301 298 295 294 296 297 297 298 298 299 299
303 302 301 301 300 299 299 300 301 303 302 301 300 301 302 301 302 303 304 305 304 303 302 303 303 303 303 303 304 304 303 301 300 299 295 295 295 295 295 296 297 298 298
301 300 300 300 299 299 300 300 302 301 301 300 301 302 300 302 302 301 303 303 303 303 302 302 303 302 303 304 304 301 302 302 300 298 296 295 295 295 295 295 295 296 297
299 299 299 299 299 300 300 301 300 299 298 299 302 301 301 301 301 301 302 303 302 302 302 302 302 302 303 302 301 301 300 300 298 298 296 295 295 295 295 295 295 295 296
299 299 300 300 300 300 300 300 300 299 299 301 302 301 301 301 300 301 302 302 302 301 301 301 301 299 299 299 299 298 298 298 297 297 297 297 295 295 294 293 294 293 295
299 300 300 301 301 300 300 300 299 300 302 302 302 302 302 300 300 300 299 300 300 300 301 300 300 299 298 298 297 297 296 295 295 295 295 295 295 294 294 293 292 292 293
300 301 300 300 300 300 299 299 299 300 301 301 301 301 302 300 299 299 298 297 297 297 298 299 299 298 297 296 296 295 294 294 294 294 294 293 293 292 292 292 290 290 292
300 300 299 299 298 298 298 298 299 300 301 301 300 300 301 300 299 299 298 297 296 297 298 297 298 298 297 295 295 294 293 293 293 293 293 293 293 293 292 291 289 289 289
Wind_Speed
18 20 23 25 26 29 30 28 24 23 21 19 18 16 16 16 17 18 16 18 20 23 21 22 21 21 26 27 28 35 35 33 25 25 26 27 28 33 34 31 29 27 24
20 20 21 24 29 31 31 28 23 22 20 18 15 14 13 13 16 14 15 19 20 21 23 25 24 24 26 29 28 31 33 32 32 29 25 25 26 33 36 34 30 28 25
22 21 22 23 24 29 30 25 20 21 19 16 14 9 5 6 10 16 19 22 24 24 25 27 29 28 28 29 27 26 25 31 27 36 27 12 15 28 30 30 29 28 26
24 24 23 23 24 24 23 23 21 19 14 9 4 3 5 12 18 22 21 21 25 28 28 27 30 31 30 30 28 28 28 26 30 32 35 35 22 17 16 29 30 30 28
26 25 23 22 22 22 21 19 17 13 7 3 3 8 13 18 21 23 20 21 22 22 23 27 29 31 29 30 30 29 31 28 33 32 37 42 34 32 31 26 37 32 31
24 22 20 19 20 20 18 14 10 6 3 5 8 12 15 20 22 21 19 21 20 20 22 22 23 24 26 26 29 28 28 31 35 35 39 42 40 33 31 30 45 43 38
26 24 22 22 20 17 14 11 7 4 6 9 12 15 19 18 19 21 23 23 21 22 20 19 19 21 22 25 27 28 25 30 26 29 34 38 44 46 41 38 39 38 34
24 20 19 19 18 16 12 8 7 7 9 9 12 16 19 20 21 24 27 27 24 21 20 18 19 18 20 24 26 29 28 28 25 26 29 32 38 41 45 47 44 31 29
25 22 21 21 18 16 12 10 8 9 10 11 13 18 20 21 23 25 28 30 25 23 22 21 18 16 16 20 23 23 24 24 24 26 29 30 35 40 47 47 49 47 28
27 25 23 21 19 14 12 11 10 12 11 11 14 16 19 21 21 22 24 25 24 24 24 23 19 18 18 18 20 23 25 26 28 28 26 25 31 41 41 48 46 43 40
28 26 24 20 16 14 14 13 14 13 14 14 16 18 21 21 22 23 20 21 23 25 26 26 22 18 17 16 17 21 24 26 24 23 22 24 27 20 42 47 45 46 38
25 25 20 19 19 18 18 18 17 16 14 16 18 19 19 23 23 20 20 21 19 24 27 28 23 19 19 16 15 17 19 21 23 22 22 22 18 24 30 40 48 45 42
25 23 21 20 19 19 18 15 12 10 10 13 15 18 23 27 26 23 23 22 22 20 21 22 20 22 24 23 18 20 19 21 21 21 22 20 20 11 30 33 34 37 37
23 23 21 20 20 18 13 10 8 8 11 16 19 21 23 24 26 25 25 25 24 21 21 18 16 18 23 25 23 19 17 17 13 14 16 15 17 23 19 31 35 36 34
24 24 23 23 19 14 10 7 10 13 17 21 22 21 24 27 30 32 26 25 27 26 23 23 17 20 18 20 23 20 16 16 13 12 13 13 18 24 22 28 28 33 31
23 22 24 22 16 11 8 9 12 14 12 12 16 19 24 27 26 26 24 23 24 27 26 25 23 21 20 18 18 20 21 16 12 11 9 11 12 14 23 20 24 24 28
26 26 23 17 11 8 10 13 12 14 15 17 19 25 29 30 28 28 28 27 26 26 23 25 22 22 20 18 19 21 21 19 14 10 10 13 14 17 22 24 20 23 19
26 21 15 10 7 9 11 12 14 15 17 21 25 29 30 31 29 24 25 24 22 23 22 24 24 22 19 19 19 17 19 18 18 12 12 11 13 19 23 25 27 27 20
20 13 7 6 7 9 10 15 17 19 21 23 29 32 31 31 28 26 24 21 20 21 20 20 20 21 21 21 21 19 19 20 20 14 13 12 12 11 13 17 19 16 22
10 7 7 7 9 11 11 14 16 18 22 25 28 29 29 34 26 20 17 15 17 19 16 18 21 19 19 21 19 21 20 20 23 19 18 17 14 15 12 12 13 17 13
10 8 9 11 12 12 13 13 12 19 23 26 26 31 29 23 17 11 13 15 16 18 18 19 20 19 19 20 21 17 17 21 23 24 24 22 21 21 18 19 14 13 17
8 10 10 9 10 9 9 12 17 22 25 27 25 18 14 13 13 11 11 11 13 15 16 15 17 17 17 16 14 15 14 16 22 24 24 24 25 22 20 15 15 16 15
9 9 9 8 8 9 11 16 21 25 25 18 22 18 15 11 11 11 13 12 13 14 14 14 10 7 8 9 10 12 15 15 18 22 25 24 25 21 19 17 16 15 16
9 10 9 10 10 12 14 18 24 21 16 17 20 22 19 12 9 10 10 12 12 12 12 11 9 7 8 9 10 13 14 16 17 17 19 21 23 22 20 20 19 20 20
10 9 10 11 14 16 18 19 19 17 18 20 22 19 13 10 9 9 11 11 10 9 8 8 8 7 9 10 10 13 16 16 15 15 17 22 24 23 22 20 18 18 22
8 10 12 15 16 18 18 19 16 16 17 21 22 24 17 10 10 8 8 7 8 7 6 5 7 8 7 7 8 11 14 16 16 19 22 25 26 25 24 21 19 19 19
Wind_Direction
219 218 215 207 207 209 208 208 213 210 212 211 219 230 241 250 257 264 256 266 268 272 274 264 266 275 276 278 278 265 254 255 247 241 238 229 224 224 223 222 225 227 224
189 180 186 192 198 200 203 207 210 209 212 217 222 235 246 251 259 281 276 272 273 271 273 273 271 275 276 278 275 272 259 255 242 238 224 220 220 221 214 208 211 216 216
174 168 168 173 185 198 202 202 196 202 208 214 225 229 251 293 308 309 295 284 277 272 272 271 276 274 277 277 276 272 271 261 267 238 225 198 206 208 216 214 209 203 206
167 160 159 159 165 169 174 177 177 180 182 176 179 245 288 313 320 319 308 297 294 282 271 272 275 276 274 271 271 269 267 267 261 248 232 227 222 184 193 207 205 204 203
158 149 147 150 152 152 157 162 161 154 159 201 287 316 317 314 308 307 300 307 307 301 287 273 270 269 269 273 271 272 266 273 264 253 239 234 232 227 202 189 202 205 208
157 151 148 146 142 142 145 148 158 172 217 298 303 310 314 324 312 304 303 314 312 311 301 284 275 269 268 266 275 279 267 283 259 255 246 237 228 217 210 209 203 198 200
158 153 148 150 153 156 160 172 190 231 282 294 306 319 325 316 302 302 298 307 307 306 305 290 282 273 266 265 268 270 269 271 268 261 250 246 247 242 237 214 190 183 189
172 170 166 168 172 178 186 200 234 258 280 289 312 317 320 315 308 310 298 296 299 311 297 290 296 285 272 265 267 269 271 269 268 265 262 261 254 256 220 216 197 175 180
182 182 182 183 191 192 204 228 251 281 284 294 311 318 309 297 295 289 288 288 287 296 293 283 289 286 283 280 276 275 276 274 271 271 267 262 259 255 247 232 217 209 178
193 194 192 196 195 209 222 230 253 269 277 279 292 291 289 288 294 297 296 287 279 283 291 283 280 277 278 276 273 274 276 276 270 276 271 266 258 252 243 223 226 215 210
198 198 193 198 211 218 218 234 248 258 265 270 273 280 280 288 298 301 301 291 275 277 283 283 270 268 274 277 279 286 282 273 274 270 268 259 253 256 227 232 216 204 200
198 195 204 211 215 216 223 234 243 256 266 259 266 275 285 291 296 295 304 305 288 279 279 283 258 259 268 263 284 299 296 266 279 269 263 265 258 252 209 199 205 207 203
202 211 211 217 219 219 223 234 241 253 259 262 274 284 296 290 295 295 295 294 293 296 290 286 266 265 269 274 276 282 291 276 282 263 256 241 244 189 198 197 196 203 201
215 215 218 213 206 212 216 229 249 270 261 256 272 281 282 277 278 286 285 280 279 283 289 284 274 273 272 276 270 274 275 297 284 268 256 239 230 224 222 207 199 202 200
216 220 213 202 205 208 220 246 280 294 293 288 288 286 287 289 291 290 281 282 280 273 282 277 274 277 291 285 287 275 269 277 291 281 255 250 223 220 201 207 200 205 203
228 208 201 202 203 214 243 275 303 319 312 313 321 313 313 306 295 285 281 288 288 277 273 273 269 265 278 284 284 275 266 264 279 277 247 231 222 222 202 189 192 191 206
210 197 196 197 209 245 284 303 307 312 313 311 312 314 313 308 301 280 278 281 291 286 269 268 265 273 271 276 278 278 269 251 267 261 238 231 221 218 209 198 205 205 204
197 189 195 212 253 290 296 293 288 290 301 311 313 315 312 310 297 291 280 282 285 275 272 259 269 263 265 270 272 273 263 249 252 230 233 218 218 212 207 209 206 206 206
180 189 210 249 263 266 280 280 286 287 299 306 309 310 308 311 291 283 281 284 290 285 276 274 270 263 262 264 269 267 259 242 245 216 211 201 197 193 186 191 176 190 210
174 203 223 236 260 280 276 276 281 283 295 307 310 310 303 311 294 284 266 274 284 299 292 283 273 270 261 262 264 262 252 241 237 218 200 200 194 196 198 215 212 219 223
193 205 240 260 273 283 291 297 285 295 306 303 307 310 309 294 284 293 264 267 280 285 282 280 271 271 264 267 270 264 244 243 238 222 201 198 196 195 216 215 213 226 215
213 244 249 260 281 284 286 291 301 315 304 301 312 316 325 299 293 290 277 277 283 290 289 285 285 271 261 266 259 250 238 237 237 225 210 201 208 221 236 212 207 202 195
232 235 239 249 264 281 293 303 313 311 302 301 311 312 311 300 295 289 292 284 284 289 291 297 292 288 284 274 246 222 220 224 232 231 227 219 217 220 201 200 203 200 195
227 228 241 258 271 283 294 304 310 308 299 292 301 303 297 292 284 288 298 302 296 295 290 282 286 289 280 267 251 223 220 222 229 225 223 215 209 203 205 208 211 210 202
224 236 257 277 288 291 294 300 299 295 289 292 296 296 288 295 286 278 293 293 291 286 277 273 272 273 279 281 254 233 224 220 212 208 202 195 199 201 205 209 212 210 207
245 265 281 288 290 291 296 304 298 291 290 293 294 279 266 270 281 268 274 298 310 282 278 261 262 261 254 252 242 224 213 206 209 202 202 202 206 210 211 211 212 212 209